Wind_Speed
18 18 18 18 18 18 19 19 20 21 22 23 25 26 27 28 29 31 32 33 34 34 35 35 36 36 36 36 36 35 34 34 33 33 33 33 33 32 32 31 30 29 28
21 21 21 21 21 21 21 22 23 24 25 26 27 28 29 30 31 33 34 35 36 37 37 37 37 37 37 37 36 36 35 34 34 34 34 34 34 34 33 33 32 31 30
24 23 24 24 24 24 24 25 26 27 28 29 30 31 32 33 34 35 36 37 38 39 39 39 39 38 38 37 37 36 35 35 36 35 35 35 35 35 35 34 34 33 32
26 26 27 27 27 27 27 28 29 30 30 31 32 33 34 35 36 38 39 40 40 40 40 40 40 39 38 37 37 36 36 37 37 37 37 37 37 36 36 36 35 35 34
29 29 29 30 30 30 30 31 32 32 33 34 35 36 37 37 39 40 41 42 42 42 42 41 41 40 39 38 37 37 37 38 38 38 38 38 38 38 38 38 37 37 37
32 32 32 32 32 33 33 34 34 35 35 36 37 38 39 40 41 42 43 43 43 43 43 43 42 41 39 38 38 38 38 39 38 39 39 39 39 39 39 39 40 39 39
35 35 35 35 35 35 36 36 37 38 38 39 40 41 41 42 42 44 44 45 45 45 44 43 42 40 39 39 39 39 40 40 40 40 40 39 39 40 41 42 42 42 42
39 38 38 38 38 38 38 39 40 40 40 41 43 43 43 43 43 44 45 46 46 45 44 43 42 41 40 40 40 41 41 41 41 41 40 41 41 41 42 43 44 44 45
41 41 41 40 40 40 40 41 42 42 43 44 44 45 46 46 45 44 44 44 45 44 44 43 42 41 41 41 41 42 42 41 41 41 41 42 43 43 43 44 45 46 46
44 43 43 43 42 42 42 43 43 44 45 45 45 46 47 48 48 47 44 43 43 43 43 42 41 41 42 42 42 41 41 41 40 41 41 42 43 43 44 45 45 46 47
46 46 45 44 44 44 44 45 45 46 46 47 47 47 48 48 48 48 46 44 43 42 42 41 41 41 42 42 42 41 40 40 40 40 40 41 43 44 44 45 45 45 45
48 47 46 46 46 46 46 46 46 47 47 48 48 48 48 48 47 46 45 44 43 42 41 41 42 42 42 42 41 40 39 39 39 40 40 41 41 42 43 43 43 43 43
49 48 48 47 47 47 48 48 48 48 48 48 48 48 48 47 46 45 45 43 42 41 41 41 42 42 42 41 40 39 38 38 39 38 38 39 38 38 38 38 38 39 39
49 49 48 48 48 48 48 48 48 48 48 48 47 47 47 46 45 44 44 43 42 41 41 41 41 42 41 39 38 38 38 37 37 36 37 36 35 34 34 33 33 34 36
49 49 48 48 48 48 48 47 47 47 47 47 47 46 45 44 44 43 43 42 42 41 40 40 40 40 39 38 37 37 36 36 35 35 34 33 32 31 30 30 30 30 31
50 49 49 49 49 48 48 47 47 47 47 46 46 45 44 43 43 42 42 42 41 40 39 39 38 38 37 36 36 36 35 35 34 33 32 31 29 28 27 27 27 28 28
50 50 49 49 49 48 47 47 46 46 46 45 44 43 43 42 41 41 41 39 39 38 38 37 37 36 36 35 35 35 34 34 33 32 31 30 28 27 25 25 25 26 26
51 50 50 49 48 47 46 46 46 45 44 44 43 42 41 41 40 40 38 38 37 37 37 36 35 35 34 34 34 34 34 33 32 30 29 29 29 28 27 26 25 25 26
50 49 48 47 47 46 45 45 45 44 43 42 41 40 40 39 38 38 37 36 36 36 35 35 34 34 34 33 33 33 33 32 31 31 30 29 29 28 28 28 28 27 28
48 46 46 45 44 44 43 43 43 42 42 41 40 39 38 37 36 36 35 35 34 34 34 34 33 33 33 33 33 33 32 32 32 32 31 31 30 30 30 30 30 30 31
44 44 44 43 43 43 42 42 41 40 39 38 38 37 36 35 35 34 33 33 33 33 33 33 32 32 33 33 33 33 33 33 33 33 33 33 32 32 32 32 33 33 33
42 42 42 42 41 41 41 40 39 38 37 36 35 34 34 33 32 31 31 31 31 32 32 32 32 32 33 33 33 33 34 34 34 34 34 35 35 35 35 35 36 36 37
40 40 40 40 39 39 38 37 36 35 35 34 33 32 31 30 30 30 30 31 31 31 32 32 33 33 34 34 34 34 35 35 35 36 36 37 37 37 38 39 39 40 41
37 37 36 36 36 36 35 34 34 33 32 31 30 30 30 29 29 30 30 30 31 31 32 33 33 34 34 35 35 35 36 36 37 38 38 39 40 41 41 42 43 43 44
34 34 33 33 33 32 32 32 31 30 30 29 29 29 29 29 30 30 30 31 31 32 32 33 34 34 35 35 36 37 37 38 39 39 40 41 42 43 44 44 45 46 47
31 31 31 31 30 30 30 29 29 29 29 29 29 29 29 29 30 30 31 31 32 33 33 34 35 35 36 37 37 38 39 40 40 41 42 43 44 45 46 47 48 48 49
Wind_Direction
272 276 280 284 287 289 291 292 294 296 298 300 302 305 307 308 309 310 310 310 310 310 310 310 309 309 308 307 306 306 305 303 303 301 299 298 296 293 290 288 285 281 278
272 276 280 283 286 288 289 290 292 294 295 298 300 303 304 306 307 308 308 308 308 309 309 308 308 307 307 306 305 304 303 302 301 299 298 296 294 291 288 286 283 280 277
272 276 280 282 284 286 287 289 290 292 293 295 298 301 303 304 305 306 306 306 307 307 307 307 306 306 305 304 304 303 301 300 299 298 296 293 291 289 287 284 282 280 277
272 276 279 281 282 284 286 287 289 291 292 294 297 299 301 303 304 305 305 306 306 306 306 305 304 304 303 303 302 301 300 300 298 296 294 292 291 288 286 283 280 278 276
272 275 277 279 281 283 284 286 288 289 291 293 296 298 300 302 303 304 304 305 306 305 304 304 303 302 302 301 301 300 300 299 297 295 293 291 289 287 285 282 279 276 274
271 274 276 279 281 282 283 284 286 287 289 292 294 297 299 301 303 303 303 304 304 303 303 302 302 301 301 300 300 299 299 298 296 295 293 291 288 286 284 281 278 275 272
271 274 276 278 280 281 282 284 285 287 289 291 294 296 297 300 301 302 302 303 302 302 301 301 300 300 299 299 299 299 298 297 296 294 293 290 288 286 283 279 277 274 271
271 274 275 277 278 280 281 282 284 286 288 291 293 294 296 297 299 300 301 301 300 300 299 299 298 298 297 298 298 298 297 297 296 295 293 291 288 285 282 278 274 272 269
271 273 275 276 277 278 279 281 284 286 288 290 292 294 296 297 297 298 297 298 298 298 297 297 297 296 296 297 297 297 297 298 297 295 294 292 290 286 282 277 274 271 268
269 271 273 274 275 277 278 280 282 285 288 289 291 293 295 296 297 298 297 296 295 295 295 295 295 295 296 297 297 297 297 297 296 296 295 293 291 287 283 277 275 271 267
267 269 270 272 273 275 277 279 282 284 286 288 290 292 294 295 296 296 296 296 295 294 294 294 294 295 296 297 297 297 297 297 297 297 296 294 292 287 284 279 275 272 267
265 267 268 270 272 274 276 279 281 283 285 288 290 291 293 294 294 294 295 295 295 294 294 293 293 294 296 297 297 297 297 297 298 298 298 297 294 290 286 281 277 275 268
264 266 268 270 272 274 276 278 281 283 286 288 289 290 292 293 293 293 294 294 294 294 293 293 294 295 296 296 296 297 297 298 299 300 300 300 297 293 289 284 280 276 269
265 267 269 271 273 275 277 278 281 283 285 287 288 289 290 291 291 292 293 293 293 293 293 293 294 295 295 295 296 297 297 299 300 301 303 303 300 296 292 287 282 276 273
266 267 270 271 273 274 276 279 281 283 285 286 287 288 289 289 290 291 292 292 292 292 292 293 294 295 294 295 296 297 298 299 301 301 303 305 302 300 295 290 283 278 275
267 268 270 271 273 274 276 278 280 282 284 285 286 287 287 288 288 289 291 291 291 292 292 293 294 295 294 295 296 297 298 299 301 301 303 304 304 302 298 292 286 282 276
267 268 270 271 273 275 277 278 280 281 283 284 285 285 286 287 287 289 290 290 291 292 293 293 294 294 295 295 296 297 298 300 301 301 301 302 303 303 301 295 290 285 280
267 268 270 271 273 275 276 278 279 280 282 282 283 284 285 285 287 288 289 290 291 292 293 293 294 294 295 296 296 297 298 299 300 301 301 301 301 300 298 296 292 287 282
268 269 270 271 273 275 276 277 278 279 280 281 281 282 283 285 286 287 289 290 291 292 293 293 294 294 295 296 296 297 297 298 299 300 300 299 299 299 298 296 292 289 284
269 269 270 271 272 273 275 276 277 277 278 279 280 281 282 283 285 287 289 290 291 292 293 293 293 294 295 296 297 297 297 297 298 298 298 298 297 297 296 295 292 289 285
267 268 269 269 270 272 273 274 275 275 276 277 278 280 281 282 285 287 289 290 291 292 293 293 294 295 296 296 296 296 296 297 297 297 297 297 296 295 294 292 291 289 286
265 266 267 268 270 271 272 272 273 273 274 275 277 278 280 283 285 287 289 291 292 293 294 294 295 295 296 296 296 296 296 296 296 296 296 295 295 294 293 292 290 288 286
265 266 266 268 269 269 270 270 271 272 273 274 276 278 281 283 285 288 290 292 293 294 294 294 295 296 296 296 296 296 296 296 296 296 296 295 295 294 293 292 290 289 287
265 265 266 267 267 268 267 268 269 270 271 273 275 278 281 283 285 288 290 292 293 294 295 295 295 296 296 296 296 296 296 296 296 296 295 295 294 294 293 292 291 289 288
264 265 265 265 266 266 266 266 267 268 270 273 275 278 281 284 287 289 290 292 293 294 295 296 296 296 296 296 296 296 296 296 296 296 296 295 295 295 294 293 291 290 289
263 263 263 263 263 264 265 266 267 268 270 273 276 279 282 285 288 289 291 292 294 295 295 296 296 296 296 296 296 296 296 296 296 296 296 296 296 296 295 294 293 291 290
Height
5877 5877 5876 5876 5875 5875 5874 5873 5872 5870 5868 5867 5865 5862 5860 5858 5855 5852 5850 5847 5844 5841 5838 5835 5832 5829 5826 5823 5821 5818 5815 5813 5811 5809 5807 5805 5803 5802 5800 5799 5799 5798 5798
5872 5872 5872 5872 5871 5871 5870 5868 5867 5866 5864 5862 5860 5858 5855 5853 5850 5847 5844 5841 5838 5835 5832 5829 5826 5823 5820 5817 5814 5811 5808 5806 5804 5802 5800 5798 5796 5795 5793 5792 5792 5791 5791
5868 5868 5867 5867 5866 5866 5865 5863 5862 5861 5859 5857 5855 5852 5850 5847 5845 5842 5838 5835 5832 5829 5825 5822 5819 5816 5813 5810 5807 5804 5801 5799 5796 5794 5792 5790 5789 5787 5786 5785 5784 5784 5784
5862 5862 5862 5861 5861 5860 5859 5858 5857 5855 5853 5851 5849 5847 5844 5841 5838 5835 5831 5828 5825 5822 5818 5815 5812 5809 5805 5802 5799 5796 5794 5791 5788 5786 5784 5782 5781 5779 5778 5777 5776 5776 5776
5857 5857 5856 5855 5855 5854 5853 5852 5851 5849 5847 5845 5842 5840 5837 5835 5831 5828 5824 5821 5817 5814 5810 5807 5804 5801 5798 5795 5792 5789 5786 5783 5780 5778 5776 5774 5772 5770 5769 5768 5768 5767 5767
5850 5850 5850 5849 5848 5848 5847 5846 5844 5842 5841 5838 5836 5833 5830 5827 5824 5820 5817 5813 5809 5805 5802 5799 5795 5792 5789 5786 5783 5780 5777 5774 5772 5769 5767 5765 5763 5761 5760 5759 5758 5758 5758
5843 5843 5843 5842 5841 5841 5840 5838 5837 5835 5833 5831 5828 5826 5824 5820 5816 5812 5808 5805 5801 5797 5793 5790 5787 5784 5781 5778 5775 5772 5769 5765 5762 5760 5757 5755 5753 5751 5750 5749 5748 5747 5748
5836 5836 5836 5835 5834 5833 5832 5831 5829 5827 5826 5823 5820 5817 5816 5814 5810 5805 5800 5796 5792 5788 5785 5781 5778 5775 5772 5769 5766 5763 5759 5756 5753 5750 5747 5744 5742 5741 5739 5737 5737 5736 5736
5827 5828 5827 5827 5826 5825 5824 5823 5821 5819 5817 5815 5812 5808 5806 5804 5802 5799 5794 5788 5783 5779 5775 5772 5769 5766 5762 5759 5756 5753 5750 5746 5743 5739 5736 5733 5731 5728 5726 5725 5724 5723 5723
5819 5819 5819 5818 5818 5817 5816 5814 5812 5810 5808 5806 5804 5800 5797 5794 5791 5788 5786 5781 5775 5770 5766 5763 5759 5756 5753 5750 5747 5743 5740 5736 5733 5729 5726 5722 5718 5715 5713 5711 5710 5710 5710
5810 5810 5810 5809 5809 5808 5807 5805 5803 5801 5799 5797 5794 5792 5788 5784 5780 5777 5775 5772 5767 5763 5758 5754 5750 5747 5744 5740 5737 5733 5730 5726 5723 5719 5715 5711 5706 5703 5699 5697 5696 5695 5696
5800 5800 5800 5799 5799 5798 5797 5796 5794 5792 5790 5787 5785 5782 5778 5775 5771 5767 5764 5761 5758 5754 5749 5745 5741 5738 5734 5731 5727 5724 5720 5717 5713 5709 5705 5700 5695 5690 5686 5683 5682 5682 5682
5790 5790 5790 5789 5789 5788 5787 5785 5784 5782 5780 5777 5775 5771 5768 5765 5761 5758 5754 5751 5748 5744 5740 5736 5732 5728 5724 5721 5718 5714 5711 5707 5703 5699 5694 5689 5684 5679 5675 5672 5670 5670 5670
5779 5779 5779 5779 5778 5777 5776 5775 5773 5771 5769 5767 5764 5761 5758 5755 5751 5748 5744 5741 5738 5734 5731 5727 5722 5718 5715 5712 5709 5705 5702 5698 5694 5690 5685 5680 5675 5670 5666 5663 5661 5660 5660
5768 5768 5768 5768 5767 5766 5765 5764 5762 5761 5758 5756 5753 5750 5747 5744 5741 5738 5735 5731 5728 5725 5721 5717 5713 5709 5706 5703 5699 5696 5693 5689 5685 5681 5676 5671 5667 5662 5659 5656 5654 5652 5651
5757 5757 5757 5756 5756 5755 5754 5753 5751 5750 5748 5745 5743 5740 5737 5734 5731 5728 5725 5721 5718 5714 5711 5708 5704 5700 5697 5694 5691 5687 5684 5681 5677 5673 5669 5664 5660 5656 5652 5650 5647 5646 5645
5745 5746 5745 5745 5745 5744 5743 5742 5740 5739 5737 5734 5732 5729 5727 5724 5721 5718 5715 5711 5708 5705 5702 5698 5695 5691 5688 5685 5682 5679 5676 5672 5669 5665 5661 5657 5654 5650 5647 5644 5642 5640 5639
5734 5734 5734 5734 5733 5732 5732 5731 5729 5727 5726 5723 5721 5719 5717 5714 5711 5708 5705 5701 5698 5695 5692 5689 5686 5683 5680 5676 5673 5670 5667 5664 5661 5657 5654 5651 5647 5644 5641 5638 5636 5634 5632
5722 5722 5722 5722 5721 5721 5720 5719 5718 5716 5715 5713 5711 5709 5706 5704 5701 5698 5695 5692 5689 5686 5683 5680 5677 5674 5671 5668 5665 5662 5659 5656 5653 5649 5646 5644 5640 5638 5635 5632 5630 5628 5626
5710 5710 5710 5710 5710 5709 5708 5707 5706 5705 5704 5702 5700 5698 5696 5694 5691 5689 5686 5683 5680 5677 5674 5671 5668 5665 5663 5659 5656 5653 5650 5647 5645 5641 5638 5636 5633 5630 5627 5625 5622 5620 5618
5698 5698 5698 5698 5698 5698 5697 5696 5695 5694 5693 5691 5690 5688 5686 5684 5682 5679 5677 5674 5671 5668 5665 5663 5660 5657 5654 5651 5648 5645 5642 5639 5636 5633 5630 5627 5624 5622 5619 5616 5614 5611 5609
5686 5687 5687 5687 5687 5686 5686 5685 5684 5683 5682 5681 5680 5678 5676 5674 5672 5670 5668 5665 5662 5660 5657 5654 5651 5648 5646 5642 5639 5636 5633 5630 5627 5624 5621 5618 5615 5612 5609 5607 5604 5601 5599
5675 5675 5675 5676 5676 5675 5675 5675 5674 5673 5672 5672 5670 5669 5667 5665 5663 5661 5659 5656 5654 5651 5648 5646 5643 5640 5637 5634 5630 5627 5624 5621 5618 5614 5611 5608 5605 5602 5599 5595 5593 5590 5587
5665 5665 5665 5665 5665 5665 5665 5665 5664 5664 5663 5662 5661 5660 5659 5657 5655 5653 5650 5648 5645 5642 5640 5637 5634 5631 5627 5624 5621 5618 5614 5611 5607 5604 5600 5597 5594 5590 5587 5583 5580 5576 5573
5655 5655 5655 5656 5656 5656 5656 5656 5655 5655 5655 5654 5653 5651 5650 5648 5646 5644 5642 5639 5636 5634 5631 5628 5625 5621 5618 5614 5611 5608 5604 5601 5597 5593 5589 5585 5581 5577 5573 5570 5566 5562 5558
5646 5646 5647 5647 5647 5647 5647 5647 5647 5647 5646 5645 5644 5643 5641 5639 5637 5635 5633 5630 5627 5625 5621 5618 5615 5612 5608 5604 5601 5597 5593 5590 5586 5582 5577 5573 5569 5564 5560 5555 5550 5546 5542